Location: Lombard
(41.8800°N, 88.0080°W)
Time: 12:28:52
(UTC-05:00)

UKube-1 - Visible Passes

Search period start: 17 May 2022 00:00
Search period end: 27 May 2022 00:00
Orbit: 609 x 616 km, 98.4° (Epoch: 17 May)

Date Brightness Start Highest point End Pass type
(mag) Time Alt. Az. Time Alt. Az. Time Alt. Az.
17 May ? 22:04:19 10° NNE 22:08:11 32° E 22:08:19 32° ESE visible
17 May ? 23:40:32 10° NNW 23:43:54 23° WNW 23:45:21 19° W visible
18 May ? 22:19:04 10° NNE 22:23:14 47° E 22:23:33 46° ESE visible
18 May ? 23:56:02 10° NNW 23:58:45 17° WNW 00:00:33 13° W visible
19 May ? 22:33:57 10° NNE 22:38:14 70° ESE 22:38:46 61° SSE visible
20 May ? 00:11:57 10° NW 00:13:34 12° WNW 00:15:10 10° W visible
20 May ? 22:48:54 10° N 22:53:13 81° WNW 22:53:59 59° SSW visible
21 May ? 21:29:52 10° ENE 21:31:56 13° E 21:32:11 13° E visible
21 May ? 23:03:57 10° N 23:08:10 55° WNW 23:09:12 43° WSW visible
22 May ? 21:43:58 10° NE 21:47:02 19° E 21:47:23 19° E visible
22 May ? 23:19:05 10° N 23:23:04 38° WNW 23:24:24 30° WSW visible
23 May ? 21:58:27 10° NE 22:02:07 27° E 22:02:35 26° ESE visible
23 May ? 23:34:19 10° N 23:37:57 27° WNW 23:39:36 21° WSW visible
24 May ? 22:13:07 10° NNE 22:17:10 38° E 22:17:47 36° ESE visible
24 May ? 23:49:41 10° NNW 23:52:47 20° WNW 23:54:47 15° W visible
25 May ? 22:27:55 10° NNE 22:32:10 57° E 22:32:58 48° SE visible
26 May ? 00:05:19 10° NNW 00:07:36 14° WNW 00:09:52 10° W visible
26 May ? 22:42:48 10° NNE 22:47:08 83° ESE 22:48:08 53° S visible
